Location: Azul
(36.7830°S, 59.8500°W)
Time: 10:59:09
(UTC-03:00)

ITUPSAT 1 - Visible Passes

Search period start: 22 October 2021 00:00
Search period end: 01 November 2021 00:00
Orbit: 700 x 713 km, 98.6° (Epoch: 21 October)

Date Brightness Start Highest point End Pass type
(mag) Time Alt. Az. Time Alt. Az. Time Alt. Az.
22 Oct ? 21:01:51 10° NW 21:04:54 17° W 21:07:58 10° SW visible
23 Oct ? 20:06:09 10° N 20:10:55 61° WNW 20:15:45 10° SSW visible
24 Oct ? 20:51:34 10° NW 20:55:11 21° W 20:58:52 10° SW visible
25 Oct ? 19:56:28 10° N 20:01:17 78° WNW 20:06:11 10° SSW visible
26 Oct ? 20:41:27 10° NNW 20:45:30 27° W 20:49:36 10° SW visible
28 Oct ? 20:31:27 10° NNW 20:35:48 34° W 20:40:14 10° SSW visible
29 Oct ? 21:18:37 10° WNW 21:20:14 12° W 21:21:52 10° WSW visible
30 Oct ? 20:21:34 10° N 20:26:08 43° W 20:30:47 10° SSW visible
31 Oct ? 21:07:45 10° NW 21:10:30 15° W 21:13:16 10° WSW visible
